Tracking 35237 objects as of 5-Sep-2026
HD Live streaming from Space Station
objects crossing your sky now

COSMOS 57 DEB


COSMOS 57 DEB is no longer on orbit


NORAD ID: 1130
Int'l Code: 1965-012AJ
Launch date: February 22, 1965
Source: Commonwealth of Independent States (former USSR) (CIS)
Launch site: TYURATAM MISSILE AND SPACE COMPLEX (TTMTR)
Decay date: 1965-03-11

Note: This is SATELLITE DEBRIS
Your satellite tracking list
Your tracking list is empty




NASA's NSSDC Master Catalog

Two Line Element Set (TLE):
1 01130U 65012 AJ 65063.04457590  .00656255 +97612-3 +00000-0 0  9990
2 01130 064.8271 264.6881 0182798 065.3623 296.5493 15.97678503001550
Source of the keplerian elements: AFSPC